sat.trackr.live / text

‹ back to catalog

STARLINK-33826

NORAD 63641 · 2025-083H

PAYLOAD ACTIVE UNKNOWN

§ Identity

Operator
Country
US
Launch date
2025-04-25
Launch site
AFETR
Launch vehicle
Mass (kg)
RCS (m²)

Purposes: comms

External: N2YO · Heavens-Above · Gunter

§ Orbital elements

Epoch: 2026-05-24T19:59:15.641952Z

Period
94.26 min
Inclination
43.0005°
Eccentricity
0.0001876
Mean motion
15.27613856 rev/d
Perigee alt
481.7 km
Apogee alt
484.2 km
Semi-major
6,861.1 km
B*
8.5792e-4
RAAN
295.0544°
Arg perigee
269.1316°
Mean anomaly
90.9321°
Rev number
6,171

§ Raw data

STARLINK-338261 63641U 25083H   26144.83281993  .00023446  00000+0  85792-3 0  99902 63641  43.0005 295.0544 0001876 269.1316  90.9321 15.27613856 61716

JSON: /api/v1/satellites/63641 · /tle

For live sub-satellite position, see the globe view (requires WebGL).

§ Visibility from observer

Set your observer location to see the next 7 days of passes ≥ 10°. The values pass through the URL so the page stays shareable.

No JS? Fill the form by hand. The geolocation button needs JavaScript.